AirNav   Everest Fuels
 
 1503 users online  

E19 Gruver Municipal Airport
Gruver, Texas, USA

GOING TO GRUVER?


FAA INFORMATION EFFECTIVE 21 MAY 2020

Location

FAA Identifier: E19
Lat/Long: 36-14-01.4140N 101-25-55.8820W
36-14.023567N 101-25.931367W
36.2337261,-101.4321894
(estimated)
Elevation: 3205.3 ft. / 977.0 m (surveyed)
Variation: 09E (1965)
From city: 2 miles SW of GRUVER, TX
Time zone: UTC -5 (UTC -6 during Standard Time)
Zip code: 79040

Airport Operations

Airport use: Open to the public
Activation date: 12/1978
Control tower: no
ARTCC: ALBUQUERQUE CENTER
FSS: FORT WORTH FLIGHT SERVICE STATION
NOTAMs facility: FTW (NOTAM-D service available)
Attendance: UNATNDD
Wind indicator: lighted
Segmented circle: yes
Lights: SS-SR
Beacon: white-green (lighted land airport)
Operates sunset to sunrise.

Airport Communications

CTAF: 122.9
  • APCH/DEP SVC PRVDD BY ALBUQUERQUE ARTCC ON FREQS 127.85/285.475 (AMARILLO NR 1 RCAG).

Nearby radio navigation aids

VOR radial/distance  VOR name  Freq  Var
BGDr344/25.7BORGER VORTAC108.6011E

 
NDB name  Hdg/Dist  Freq  Var  ID
GUYMON164/28.527509EGUY --. ..- -.--
PERRYTON245/34.826607EPYX .--. -.-- -..-

Airport Services

Parking: tiedowns
Airframe service: NONE
Powerplant service: NONE
Bottled oxygen: NONE
Bulk oxygen: NONE

Runway Information

Runway 2/20

Dimensions: 4698 x 60 ft. / 1432 x 18 m
Surface: asphalt, in fair condition
Weight bearing capacity: 
Single wheel: 12.5
Runway edge lights: medium intensity
ACTVT MIRL RWY 02/20 - CTAF.
RUNWAY 2  RUNWAY 20
Latitude: 36-13.689233N36-14.357033N
Longitude: 101-26.173333W101-25.689767W
Elevation: 3205.3 ft.3186.8 ft.
Traffic pattern: leftleft
Runway heading: 021 magnetic, 030 true201 magnetic, 210 true
Markings: nonprecision, in fair conditionnonprecision, in fair condition
Touchdown point: yes, no lightsyes, no lights
Obstructions: 4 ft. fence, 200 ft. from runway, 197 ft. left of centerline
4 FT FENCE AT THLD, 200 FT LEFT.
4 ft. fence, 370 ft. from runway, 140 ft. right of centerline, 42:1 slope to clear

Airport Ownership and Management from official FAA records

Ownership: Publicly-owned
Owner: CITY OF GRUVER
PO BOX 947
GRUVER, TX 79040
Phone 806-733-2424
Manager: JOHNNIE WILLIAMS
PO BOX 947
GRUVER, TX 79040
Phone 806-733-2424
CITY MANAGER.

Airport Operational Statistics

Aircraft based on the field: 15
Single engine airplanes: 14
Gliders airplanes: 1
    
Aircraft operations: avg 59/week *
97% local general aviation
3% transient general aviation
* for 12-month period ending 20 September 2017

Additional Remarks

FOR CD CTC ALBUQUERQUE ARTCC AT 505-856-4861.

Instrument Procedures

NOTE: All procedures below are presented as PDF files. If you need a reader for these files, you should download the free Adobe Reader.

NOT FOR NAVIGATION. Please procure official charts for flight.
FAA instrument procedures published for use from 21 May 2020 at 0901Z to 18 June 2020 at 0900Z.

 
IAPs - Instrument Approach Procedures
RNAV (GPS) RWY 02   download (188KB)
RNAV (GPS) RWY 20   download (199KB)
NOTE: Special Take-Off Minimums/Departure Procedures apply   download (113KB)

Other nearby airports with instrument procedures:

E42 - Major Samuel B Cornelius Field Airport (12 nm E)
KGUY - Guymon Municipal Airport (27 nm N)
H70 - Stratford Field Airport (31 nm W)
KBGD - Hutchinson County Airport (32 nm S)
KPYX - Perryton Ochiltree County Airport (35 nm E)
 
Loc | Ops | Rwys | IFR | FBO | Links
Com | Nav | Svcs | Stats | Notes

AirBoss

 
Area around E19 (Gruver Municipal Airport)
 
Road maps at: MapQuest Bing Google
 
Aerial photo
No photo
 
Sectional chart

 
Airport distance calculator
Flying to Gruver Municipal Airport? Find the distance to fly.

From to E19

Sunrise and sunset
Times for 26-May-2020
 Local
(UTC-5)
 Zulu
(UTC)
Morning civil twilight06:0311:03
Sunrise06:3311:33
Sunset20:5301:53
Evening civil twilight21:2302:23

Current date and time
Zulu (UTC)  26-May-2020 16:20:39
Local (UTC-5)  26-May-2020 11:20:39
 
METAR
KGUY 
27nm N 
261553Z AUTO 36011KT 10SM CLR 22/06 A3001 RMK AO2 SLP131 T02170056
KBPC 
28nm SE 
261555Z AUTO 19010KT 10SM CLR 22/04 A3001 RMK AO2
KBGD 
32nm S 
261551Z AUTO 28009KT 10SM CLR 22/06 A3003 RMK AO2 SLP138 T02220056
KPYX 
35nm NE 
261555Z AUTO 34009KT 10SM CLR 17/06 A3000 RMK AO2 T01740058
KDUX 
36nm SW 
261555Z AUTO 30005G14KT 10SM CLR 20/02 A3005 RMK AO2 T02030022
KPPA 
49nm SE 
261555Z AUTO 33010G18KT 10SM CLR 21/05 A3003 RMK AO2 T02120051
TAF
KGUY 
27nm N 
261122Z 2612/2712 31009KT P6SM FEW250 FM261600 36010KT P6SM FEW250 FM270100 06008KT P6SM SCT100 FM270300 12007KT P6SM SCT200 FM270500 VRB06KT P6SM BKN100
NOTAMs
Click for the latest NOTAMs
NOTAMs are issued by the DoD/FAA and will open in a separate window not controlled by AirNav.

 

 
 

Would you like to see your business listed on this page?

 If your business provides an interesting product or service to pilots, flight crews, aircraft, or users of the Gruver Municipal Airport, you should consider listing it here.  To start the listing process, click on the button below
 
Add a business
 

Other Pages about Gruver Municipal Airport

Update a link
 
Copyright © AirNav, LLC. All rights reserved. Privacy Policy  Contact